Location: downtown San Diego
(32.7310°N, 117.1990°W)
Time: 23:26:06
(UTC-08:00)

Genesis I - Pass Details

Date: 12 July 2018
Orbit: 478 x 549 km, 64.5° (Epoch: 19 December)

Event Time Altitude Azimuth Distance (km) Brightness Sun altitude
Rises 21:59:56 0° 330° (NNW) 2,717 8.2 -21.3°
Reaches altitude 10° 22:02:09 10° 330° (NNW) 1,823 7.1 -21.7°
Maximum altitude 22:06:15 85° 242° (WSW) 554 3.2 -22.2°
Enters shadow 22:06:26 81° 184° (S) 559 3.1 -22.3°
